Regional Weather Roundup
Issued by NWS

Home | Current Version | Previous Version | Text Only | Print | Product List | Glossary Off
Versions: 1 2 3 4 5 6 7 8 9 10 11 12 13 14 15 16 17 18 19 20 21 22 23 24 25 26 27 28 29 30 31 32 33 34 35 36 37 38 39 40 41 42 43 44 45 46 47 48

000
ASUS45 KSLC 040510
RWRUT

UTAH REGIONAL WEATHER ROUNDUP
NATIONAL WEATHER SERVICE SALT LAKE CITY UT
1000 PM MST TUE MAR 03 2015

UTZ001>011-023>025-040600-

NORTHERN UTAH

CITY           SKY/WX    TMP DP  RH WIND       PRES   REMARKS
BRIGHAM CITY   PTCLDY    30  19  62 SE3       30.00R
HILL AFB       CLOUDY    32  18  55 NW2       29.98R
LOGAN          CLOUDY    28  20  71 CALM      29.98R
OGDEN          CLOUDY    32  21  64 CALM      29.98R
PROVO AIRPORT  MOCLDY    30  21  69 N3        30.01R
SALT LAKE CITY MOCLDY    32  26  78 S5        30.00R WCI  27
VERNAL         PTCLDY    28  11  48 N9        29.84R WCI  19
WENDOVER       CLEAR     28  16  59 W7        30.01S WCI  21
HEBER CITY     PTCLDY    23  14  68 SE7       29.96R WCI  15
WEST JORDAN    CLOUDY    28  27  93 CALM      30.00S

$$

UTZ012>022-026-027-040600-

SOUTHERN/CENTRAL UTAH

CITY           SKY/WX    TMP DP  RH WIND       PRES   REMARKS
BLANDING       MOCLDY    28  27  94 NW8       29.94R WCI  20
BRYCE CANYON   PTCLDY    13  10  88 NW10      29.89R WCI   0
CEDAR CITY     CLEAR     24  17  74 N9        29.95R WCI  14
DELTA          CLEAR     27  22  84 CALM      30.01R
HANKSVILLE     CLOUDY    36  19  51 NW15G21   29.92R WCI  26
MILFORD        CLEAR     22  18  85 CALM      29.98R
MOAB/CYNLANDS  CLEAR     31  30  96 CALM      29.86R
PRICE          MOCLDY    26  12  55 VRB5      29.88R WCI  20
ST GEORGE      PTCLDY    41  34  75 SW9       29.98R
KANAB            N/A     32  32 100 CALM      29.96R

$$

REGIONAL REPORTS     COLORADO/ARIZONA

CITY           SKY/WX    TMP DP  RH WIND       PRES   REMARKS
CRAIG, CO      CLOUDY    19  15  84 SW5       29.87R WCI  12
GRAND JUNCTION FOG       29  29 100 N7        29.86R VSB 1/4 WCI  22
RIFLE          LGT SNOW  29  27  92 W7        29.84R FOG     WCI  22
MONTROSE       SNOW      30  29  96 SW7       29.87R VSB 1/2 WCI  23
CORTEZ         CLEAR     29  26  89 VRB5      29.87R WCI  24
PAGE, AZ       CLOUDY    41  28  60 NW6       29.89R
GRAND CANYON   LGT SNOW  28  28 100 VRB6      29.91R FOG     WCI  22
KINGMAN        MOCLDY    40  37  89 CALM      29.93R
FLAGSTAFF      NOT AVBL

$$

REGIONAL REPORTS    NEVADA/IDAHO/WYOMING

CITY           SKY/WX    TMP DP  RH WIND       PRES   REMARKS
LAS VEGAS, NV  CLOUDY    51  36  56 E5        29.91R
ELY            PTCLDY    17  10  74 W7        30.01R WCI   8
ELKO           CLEAR     22  15  75 CALM      30.05R
POCATELLO, ID  PTCLDY    27  17  66 SW13      29.97R WCI  16
BURLEY         MIX PCPN  29  12  49 W14       29.97R WCI  18
EVANSTON, WY   PTCLDY    10   6  84 W7        29.90R WCI  -1
ROCK SPRINGS   PTCLDY     7   0  73 W9        29.86R WCI  -7

$$


USA.gov is the U.S. government's official web portal to all federal, state and local government web resources and services.